Regional Weather Roundup
Issued by NWS

Home | Current Version | Previous Version | Graphics & Text | Print | Product List | Glossary On
Versions: 1 2 3 4 5 6 7 8 9 10 11 12 13 14 15 16 17 18 19 20 21 22 23 24 25 26 27 28 29 30 31 32 33 34 35 36 37 38 39 40 41 42 43 44 45 46 47 48 49 50
000
ASUS43 KIND 311959
RWRIN

WEATHER ROUNDUP FOR INDIANA
NATIONAL WEATHER SERVICE INDIANAPOLIS IN
300 PM EST SAT JAN 31 2015

NOTE: "FAIR" INDICATES FEW OR NO CLOUDS BELOW 12,000 FEET WITH NO
SIGNIFICANT WEATHER AND/OR OBSTRUCTIONS TO VISIBILITY.

* - STATION DOES NOT REPORT WEATHER SUCH AS PRECIPITATION OR FOG.

+ - STATION NOT QUALITY CONTROLLED BY THE NATIONAL WEATHER SERVICE.
    USE DATA WITH CAUTION...ESPECIALLY DEWPOINT AND RELATIVE
    HUMIDITY OBSERVATIONS.

INZ001>003-010>013-019-020-312100-
NORTHWEST INDIANA

CITY           SKY/WX    TMP DP  RH WIND       PRES   REMARKS
GARY /AIRPORT/ CLOUDY    39  21  48 SW14      30.17F
MONTICELLO +   CLOUDY    36  28  70 SW8       30.21F
VALPARAISO     NOT AVBL

$$

LMZ046-743>745-312100-
SOUTHERN LAKE MICHIGAN

STATION/POSITION TIME  TEMP WIND        PRES
                       AIR  DIR/SP/G
                 (UTC) (F)  (DEG/KT/KT) (MB)
MICHIGAN CITY    1900   36  180/ 14/ 15   N/A

$$

INZ004-005-014>016-021>024-312100-
NORTH CENTRAL INDIANA

CITY           SKY/WX    TMP DP  RH WIND       PRES   REMARKS
GOSHEN         PTSUNNY   36  26  67 SW12      30.17F
SOUTH BEND     PTSUNNY   37  24  59 SW10      30.18F
WARSAW +       PTSUNNY   36  25  64 SW9       30.19S

$$

INZ006>009-017-018-025>027-312100-
NORTHEAST INDIANA

CITY           SKY/WX    TMP DP  RH WIND       PRES   REMARKS
ANGOLA *+      SUNNY     36  23  60 SW9       30.17S
FORT WAYNE     PTSUNNY   36  25  64 SW16      30.21F

$$

INZ028-029-035-036-043>045-051>053-312100-
WEST CENTRAL INDIANA

CITY           SKY/WX    TMP DP  RH WIND       PRES   REMARKS
CRAWFORDSVL +  CLOUDY    36  19  51 SW12      30.23F
GREENCASTLE +  CLOUDY    37  21  52 SW5       30.26F
LAFAYETTE      CLOUDY    37  25  61 SW8       30.23F
TERRE HAUTE    CLOUDY    40  25  55 S9        30.27F

$$

INZ030>032-037>040-046>048-054>057-064-065-312100-
CENTRAL INDIANA

CITY           SKY/WX    TMP DP  RH WIND       PRES   REMARKS
ANDERSON       PTSUNNY   37  21  52 SW13      30.25F
INDIANAPOLIS   CLOUDY    36  22  56 SW12      30.25F
-EAGLE CREEK   CLOUDY    37  22  54 SW6       30.24F
KOKOMO *+      CLOUDY    37  25  60 SW16      30.22F
MT COMFORT *+  CLOUDY    37  14  38 SW13      30.26F
SHELBYVILLE    CLOUDY    39  22  50 SW10      30.26F

$$

INZ033-034-041-042-049-050-058-059-312100-
EAST CENTRAL INDIANA

CITY           SKY/WX    TMP DP  RH WIND       PRES   REMARKS
MUNCIE         CLOUDY    37  22  54 SW12      30.22F

$$

INZ060-061-067>069-081>083-085>088-312100-
SOUTHWEST INDIANA

CITY           SKY/WX    TMP DP  RH WIND       PRES   REMARKS
EVANSVILLE     CLOUDY    42  26  53 SW12      30.34S
HUNTINGBURG *+ CLOUDY    39  25  56 SW8       30.32F

$$

INZ062-063-066-070>080-084-089>092-312100-
SOUTH CENTRAL AND SOUTHEAST INDIANA

CITY           SKY/WX    TMP DP  RH WIND       PRES   REMARKS
BLOOMINGTON    CLOUDY    39  23  52 W10       30.27F
SEYMOUR +      CLOUDY    43  23  45 SW8       30.29F

$$




USA.gov is the U.S. government's official web portal to all federal, state and local government web resources and services.